Location: Il Ritiro
(43.4167°N, 13.1333°E)
Time: 00:24:30
(UTC+00:00)

Cosmos 2369 Rocket - Pass Details

Date: 05 July 2020
Orbit: 829 x 852 km, 71.0° (Epoch: 11 August)

Event Time Altitude Azimuth Distance (km) Brightness Sun altitude
Rises 23:38:51 0° 335° (NNW) 3,382 6.3 -23.6°
Reaches altitude 10° 23:41:18 10° 336° (NNW) 2,445 5.4 -23.6°
Maximum altitude 23:46:55 84° 65° (ENE) 843 2.1 -23.4°
Enters shadow 23:48:31 49° 149° (SSE) 1,068 2.4 -23.4°
